www.pogodaiklimat.ru

Погода и климат >> Архив погоды >> Израиль >> Беэр-Шева


ПОГОДА в Беэр-Шева

  • Прогноз погоды в Беэр-Шева
  • Монитор погоды в Беэр-Шева

АРХИВ ПОГОДЫ в Беэр-Шева

Время (UTC), дата Ветер
(напр.,м/с)
 
Видим.   Явления Облачность Т
(С)
Тd
(С)
f
(%)
Тe
(С)
Тes
(С)
Комфортность P
(гПа)
Po
(гПа)
Тmin
(С)
Tmax
(С)
R
(мм)
R24
(мм)
S
(см)
15 9.06 0 н/о н/о +28.7 +14.8 43 1007.4 976.2
18 9.06 0 н/о н/о +23.7 +15.4 60 1008.5 976.7 +23.6 +32.9
21 9.06 0 н/о н/о +20.8 +15.5 72 1009.0 976.9
00 10.06 0 н/о н/о +18.9 +13.2 69 1008.3 976.0
03 10.06 0 н/о н/о +18.0 +6.8 48 1008.6 976.2
06 10.06 0 н/о н/о +28.1 +9.6 31 1008.2 976.9 +17.6 +28.5
09 10.06 0 н/о н/о +33.0 +8.3 22 1007.0 976.2
12 10.06 0 н/о н/о +35.4 +3.7 14 1006.0 975.5
15 10.06 0 н/о н/о +33.3 +8.8 22 1006.2 975.5
18 10.06 0 н/о н/о +27.7 +10.5 34 1008.5 977.2 +27.6 +35.9
21 10.06 0 н/о н/о +24.3 +10.9 43 1009.1 977.3
00 11.06 0 н/о н/о +21.5 +10.0 48 1008.9 976.9
03 11.06 0 н/о
06 11.06 0 н/о н/о +30.4 +7.9 25 1009.6 978.5 +19.9 +30.6
09 11.06 0 н/о н/о +35.8 +6.1 16 1008.3 977.8
12 11.06 0 н/о н/о +37.7 +4.1 13 1006.9 976.6
15 11.06 0 н/о н/о +35.4 +6.6 17 1007.0 976.5
18 11.06 0 н/о н/о +29.4 +10.4 31 1009.3 978.1 +29.4 +38.0
21 11.06 0 н/о н/о +26.2 +10.3 37 1009.5 978.0
00 12.06 0 н/о н/о +23.0 +18.2 74 1010.4 978.5
03 12.06 0 н/о н/о +22.1 +19.7 86 1011.3 979.3
06 12.06 0 н/о н/о +25.4 +17.8 63 1011.9 980.2 +22.0 +29.4
09 12.06 0 н/о н/о +30.8 +17.8 46 1011.1 979.9
12 12.06 0 н/о н/о +31.1 +18.4 47 1010.3 979.2
15 12.06 0 н/о н/о +28.2 +17.3 52 1010.8 979.4
18 12.06 0 н/о н/о +23.0 +17.9 73 1012.7 980.7 +22.9 +32.4
21 12.06 0 н/о н/о +22.0 +17.9 78 1012.8 980.7
00 13.06 0 н/о н/о +21.6 +18.2 81 1011.8 979.7
03 13.06 0 н/о
06 13.06 0 н/о н/о +23.7 +17.0 66 1012.1 980.2 +20.9 +23.7
09 13.06 0 н/о н/о +28.0 +14.1 43 1011.3 979.9
12 13.06 0 н/о н/о +29.4 +12.2 35 1010.0 978.8
15 13.06 0 н/о н/о +27.5 +15.0 46 1009.7 978.3
18 13.06 0 н/о н/о +23.1 +17.8 72 1010.9 979.0 +23.1 +29.8
21 13.06 0 н/о н/о +21.5 +18.0 80 1011.0 978.9
00 14.06 0 н/о н/о +20.8 +16.9 78 1010.2 978.0
03 14.06 0 н/о
06 14.06 0 н/о н/о +24.3 +16.2 61 1009.5 977.7 +19.4 +24.4
09 14.06 0 н/о н/о +28.7 +14.7 42 1008.8 977.5
12 14.06 0 н/о н/о +31.2 +15.8 39 1007.2 976.2
15 14.06 0 н/о н/о +29.1 +15.8 45 1007.0 975.8
18 14.06 0 н/о н/о +24.3 +17.2 65 1008.4 976.7 +24.3 +31.5
21 14.06 0 н/о н/о +21.9 +17.7 77 1008.6 976.6
00 15.06 0 н/о н/о +20.2 +17.6 85 1007.9 975.7
03 15.06 0 н/о н/о +18.4 +16.2 87 1008.3 975.9
06 15.06 0 н/о н/о +24.0 +15.6 59 1008.0 976.3 +18.2 +24.3
09 15.06 0 н/о н/о +30.2 +12.7 34 1007.3 976.2
12 15.06 0 н/о н/о +32.9 +12.5 29 1005.9 975.2
15 15.06 0 н/о н/о +30.5 +14.2 37 1005.9 974.9
18 15.06 0 н/о н/о +25.4 +17.2 60 1007.1 975.5 +24.2 +33.3
21 15.06 0 н/о н/о +22.6 +17.5 73 1007.7 975.8
00 16.06 0 н/о н/о +20.7 +15.7 73 1007.5 975.5
03 16.06 0 н/о н/о +19.4 +14.0 71 1008.1 975.9
06 16.06 0 н/о н/о +27.9 +12.9 40 1007.7 976.4 +19.3 +28.1
09 16.06 0 н/о н/о +32.1 +13.3 32 1007.3 976.4

 

Местоположение метеостанции Беэр-Шева (Израиль): широта 31.25 долгота 34.80 высота над уровнем моря 280 м.

В архиве по умолчанию представлена погода в Беэр-Шева за последнюю неделю. Архивные данные за месяц целиком и за предыдущие месяцы, начиная с января 2011 года, Вы можете получить, выбрав интересующий диапазон дат из раскрывающегося списка и нажав кнопку "Ввод!".


*Определитесь, кто Вы:
робот инопланетянин человек

Внимание! Время в таблицах - всемирное. Для получения местного времени необходимо прибавить поправку, которая равна 2 ч.

Смотрите также архив погоды в соседних городах и на ближайших метеорологических станциях:

Погода в Ашкелон порту (Израиль) (51 км)
Погода в Седоме (Израиль) (61 км)
Погода в Гавр-эс-Сафи (Иордания) (68 км)
Погода в Иерусалиме (Израиль) (70 км)
Погода в Израильском мет сервисе (Израиль) (83 км)
Погода в Тель-Авиве (Израиль) (95 км)
Погода в Эль-Арише (Египет) (95 км)
Погода в Аэропорту Королева Алия (Иордания) (124 км)
Погода в Неот-Смадаре (Израиль) (135 км)
Погода в Хадера порту (Израиль) (136 км)

Пояснения к столбцам:

Ветер - указаны скорость ветра в м/с - средняя за 10 мин, порывы в срок и между сроками (в фигурных скобках) и направление, откуда дует ветер: С - северный, СВ - северо-восточный, В - восточный, ЮВ - юго-восточный, Ю - южный, ЮЗ - юго-западный, З - западный, СЗ - северо-западный.
Видимость - горизонтальная дальность видимости в метрах или километрах. При видимости от 1 до 10 км при отсутствии осадков обычно наблюдается дымка, при ухудшении видимости до 1 км и менее - туман. В сухую погоду видимость может ухудшаться дымом, пылью или мглою.
Явления - указаны атмосферные явления, наблюдавшиеся в срок или в последний час перед сроком; фигурными скобками обозначены явления, наблюдавшиеся между сроками (за 1-3 часа до срока); квадратными скобками обозначены град или гололедные отложения с указанием их диаметра в мм.
Облачность - указаны через наклонную черту общая и нижняя облачность в баллах и высота нижней границы облаков в метрах; квадратными скобками обозначены формы облаков: Ci - перистые, Cs - перисто-слоистые, Cc - перисто-кучевые, Ac - высококучевые, As - высокослоистые, Sc - слоисто-кучевые, Ns - слоисто-дождевые, Cu - кучевые, Cb - кучево-дождевые. Подробнее классификацию облаков см. в Атласе облаков (PDF).
T - Температура воздуха - температура, измеренная на высоте 2 м над землей.
Td - Температура точки росы - температура, при понижении до которой содержащийся в воздухе водяной пар достигнет насыщения.
f - Относительная влажность воздуха - влажноcть воздуха, измеренная на высоте 2 м над землей.
Te - Эффективная температура - температура, которую ощущает одетый по сезону человек в тени. Характеристика душности погоды. При расчете учитывается влияние влажности воздуха и скорости ветра на теплоощущения человека.
Tes - Эффективная температура на солнце - температура, которую ощущает человек, с поправкой на солнечный нагрев. Характеристика знойности погоды. Зависит от высоты солнца над горизонтом, облачности и скорости ветра. Ночью, в пасмурную погоду, а также при ветре 12 м/с и более поправка равна нулю.
P - Атмосферное давление - приведенное к уровню моря атмосферное давление.
Po - Атмосферное давление - измеренное на уровне метеостанции атмосферное давление.
Tmin - Минимальная температура - минимум температуры воздуха на высоте 2 м над землей.
Tmax - Максимальная температура - максимум температуры воздуха на высоте 2 м над землей.
R - Количество осадков - Количество выпавших осадков за период времени, мм. При наведении курсора мыши на число - период времени, за который выпало указанное количество осадков.
R24 - Количество осадков - Количество выпавших осадков за 24 часа, мм.
S - Снежный покров - Высота снежного покрова, см. При наведении курсора мыши на число - состояние снежного покрова и степень покрытия местности в баллах.